weather.gov     
National Weather Service

Terminal Aerodrome Forecast
NWS Homepage
This page is being discontinued on March 12, 2014.
The same data is available at this site. Please update your bookmarks.
Thank you, and we apologize for the inconvenience.
Please send an email to SR-SRH.Webmaster@noaa.gov with any concerns.


Current Version
Previous Version:    01  02  03  04  05  06  07  08  09  10  11  12  13  14  15  16  17  18  19  20  21  22  23  24  25  
[Printable]
899
FTUS45 KBOI 222321
TAFMYL
TAF
KMYL 222321Z 2300/2324 13011KT P6SM BKN200
     FM230300 VRB03KT P6SM VCTS SCT050CB OVC090
      TEMPO 2305/2309 VRB15G35KT P6SM -TSRA BKN050CB
     FM231100 VRB04KT P6SM SCT050 OVC080
     FM232100 19012KT P6SM BKN100=




899
FTUS45 KBOI 222321
TAFMYL
TAF
KMYL 222321Z 2300/2324 13011KT P6SM BKN200
     FM230300 VRB03KT P6SM VCTS SCT050CB OVC090
      TEMPO 2305/2309 VRB15G35KT P6SM -TSRA BKN050CB
     FM231100 VRB04KT P6SM SCT050 OVC080
     FM232100 19012KT P6SM BKN100=


U.S. Dept. of Commerce
NOAA National Weather Service
1325 East West Highway
Silver Spring, MD 20910
E-mail: w-nws.webmaster@noaa.gov
Page last modified: May 16, 2007
NATIONAL WEATHER SERVICE: for Safety, for Work, for Fun - FOR LIFE